Wind_Speed
11 10 9 8 8 7 6 5 4 3 2 1 1 0 1 2 3 4 4 5 6 7 7 8 8 8 7 7 7 7 6 6 5 5 5 4 4 4 3 3 3 3 4
12 11 10 9 8 7 6 5 4 4 3 2 1 1 1 2 3 3 4 4 5 6 7 7 8 7 7 7 7 7 7 6 6 6 5 5 4 4 4 3 3 3 4
13 12 11 10 9 8 7 6 5 5 4 3 2 2 2 2 2 3 3 3 3 4 5 6 7 7 7 7 7 6 6 7 6 6 5 5 5 4 3 3 3 3 3
13 12 11 10 9 8 7 7 5 5 5 4 3 2 2 1 2 2 2 3 3 3 4 5 5 6 6 6 6 6 6 6 6 6 5 5 5 4 3 2 2 2 2
13 13 12 10 9 9 8 7 5 5 5 5 4 4 3 3 2 2 2 3 2 2 3 4 4 4 5 5 5 5 5 5 5 5 5 4 4 4 3 2 1 1 1
13 12 12 11 10 9 8 7 6 6 6 6 5 5 4 4 3 3 3 3 3 3 3 3 3 3 3 4 4 4 4 5 4 4 4 4 4 3 2 2 2 1 1
12 12 11 10 10 9 9 8 7 7 7 7 7 6 6 5 5 4 4 4 4 4 4 3 3 3 3 3 3 4 4 4 4 4 4 4 4 3 3 2 2 2 2
12 11 11 10 10 10 9 8 8 8 8 8 8 7 6 6 6 6 5 5 5 5 5 5 5 4 4 4 4 4 4 4 4 4 4 5 4 3 3 3 3 3 3
11 12 12 11 10 9 9 8 8 9 9 9 9 8 7 7 7 7 7 7 7 7 7 7 6 6 6 5 5 4 4 4 5 5 4 5 5 4 4 4 4 5 5
11 11 12 11 10 10 9 9 9 9 9 9 9 9 9 8 8 8 7 8 8 8 9 8 7 7 7 7 6 5 5 5 5 6 5 6 5 5 6 6 6 6 7
11 11 11 11 11 10 10 9 9 9 9 9 9 9 9 9 9 9 9 9 9 9 9 9 9 8 8 8 8 7 7 7 7 7 7 7 7 6 7 7 8 8 8
11 11 11 11 11 11 11 10 9 9 9 9 10 10 10 10 10 10 10 10 10 10 10 9 9 9 9 9 9 8 9 9 9 9 9 8 8 8 8 9 9 10 11
11 11 11 11 11 11 10 10 10 10 10 10 11 11 11 11 11 11 10 10 10 10 10 10 10 10 10 9 9 10 10 11 11 11 10 10 10 10 10 11 12 13 13
10 11 11 11 11 11 11 11 11 11 11 11 11 12 12 11 11 11 11 11 11 11 11 11 10 10 10 10 11 11 12 13 13 13 12 12 12 13 13 14 14 15 16
11 11 11 12 11 11 12 12 12 12 13 12 12 12 12 12 12 12 12 12 12 12 12 12 12 12 12 12 12 13 14 14 14 15 15 15 15 15 16 16 17 18 19
11 12 12 12 12 12 12 12 13 13 13 13 13 13 13 13 13 13 13 13 13 13 13 14 13 14 14 14 15 15 16 16 16 16 17 17 18 18 19 20 20 21 22
12 13 12 12 13 13 13 13 13 13 14 14 14 14 14 14 14 14 14 14 15 14 14 15 15 15 16 17 17 18 18 18 18 18 19 19 20 21 22 23 24 24 25
13 14 14 14 14 14 14 14 14 14 14 14 15 14 14 15 15 15 16 16 16 16 16 16 17 17 18 19 19 19 19 20 20 20 21 22 22 23 24 25 26 26 27
13 14 15 15 15 15 15 15 15 15 15 16 16 16 16 16 17 17 17 18 18 18 18 18 19 19 20 21 21 21 22 22 22 23 24 24 25 26 26 27 28 29 30
14 14 15 15 16 16 16 16 16 16 17 17 17 18 18 18 18 18 19 19 19 19 19 20 20 21 22 23 23 24 24 25 25 26 27 28 28 29 30 31 32 33 33
16 15 16 16 16 17 17 17 17 17 18 18 18 19 19 19 19 20 20 20 20 20 21 21 22 23 23 24 25 26 27 28 29 29 30 31 31 32 33 34 35 36 37
17 17 17 17 17 18 18 18 19 19 18 19 19 20 21 21 21 22 22 22 22 23 23 23 24 25 26 27 28 29 30 30 31 32 33 33 34 35 36 38 39 39 40
18 18 18 18 18 18 19 20 20 20 19 20 21 21 22 23 23 23 24 24 25 25 26 26 27 28 29 29 30 31 32 33 34 35 36 37 38 39 40 41 42 43 43
18 19 19 19 19 20 20 20 21 21 21 21 22 23 24 25 25 26 26 26 27 27 28 29 30 31 31 32 33 34 35 36 37 38 39 40 41 42 42 43 44 44 45
19 19 19 20 20 21 21 21 22 23 23 24 24 25 26 26 27 28 28 29 29 30 31 31 32 33 34 35 36 37 38 39 40 41 41 42 43 43 44 45 46 46 47
21 21 21 21 22 22 22 23 24 24 25 26 27 27 28 29 29 30 30 31 32 32 33 34 35 36 37 38 39 40 40 41 42 42 43 44 45 46 46 47 48 49 50
Wind_Direction
195 196 200 204 208 210 209 208 206 206 214 220 228 317 349 357 2 11 18 20 22 25 26 25 26 30 34 38 42 43 44 46 50 57 65 69 68 71 84 100 119 140 148
200 201 202 207 209 208 210 211 211 214 218 221 234 288 327 350 359 11 19 19 22 25 24 27 28 31 35 38 43 47 51 51 52 56 61 65 66 71 81 96 127 152 161
203 203 202 205 209 213 218 220 222 221 218 223 239 266 300 333 351 358 9 13 18 20 26 30 31 33 35 37 41 46 50 51 51 50 55 60 64 69 78 87 110 138 162
205 204 207 212 214 216 221 223 223 224 225 230 239 254 277 300 326 337 345 356 1 12 20 26 29 33 35 37 40 43 44 45 44 46 51 55 56 56 61 75 100 132 161
211 211 214 217 222 222 220 220 223 227 230 235 243 250 262 270 285 304 317 327 334 347 358 10 17 21 27 29 29 29 33 32 30 35 38 40 38 43 45 51 67 136 182
213 216 219 222 227 226 224 223 226 235 236 238 243 247 254 261 268 277 291 299 306 318 324 339 352 357 2 6 5 5 10 14 15 14 13 18 21 21 26 27 19 9 296
216 220 223 225 230 231 228 228 232 238 240 240 241 244 251 259 263 266 271 279 288 298 305 307 320 325 322 329 340 343 349 357 358 358 359 3 9 7 5 359 345 323 314
218 221 221 226 229 229 228 232 238 244 243 239 240 242 250 258 262 265 268 272 278 286 290 294 293 298 298 303 314 319 329 337 341 347 351 349 348 350 354 343 323 311 313
221 221 222 227 230 228 229 235 244 247 241 239 242 245 251 258 262 265 267 269 273 280 283 286 289 286 290 290 291 307 322 331 337 340 341 337 333 327 325 324 317 311 309
221 221 221 227 230 231 235 240 244 245 242 241 246 251 255 259 263 267 268 270 275 279 280 281 281 279 283 285 282 292 303 309 313 320 325 327 323 315 315 318 319 318 311
222 222 225 229 233 237 240 240 244 244 243 244 249 255 259 265 266 268 269 270 274 277 280 281 279 276 277 279 273 280 289 297 300 302 308 313 314 311 307 308 309 312 312
224 226 229 232 236 238 242 243 243 247 251 252 253 257 262 269 270 271 271 270 273 275 277 279 279 277 276 276 272 279 285 290 294 297 300 301 302 301 301 302 304 305 307
233 234 233 236 238 239 242 246 247 252 256 258 260 261 264 268 270 271 271 270 271 273 277 281 280 279 277 276 274 277 281 286 289 292 293 294 293 293 293 294 296 299 301
241 242 240 242 245 247 249 251 251 255 258 260 265 264 265 268 268 270 271 271 271 272 273 277 277 276 277 278 277 279 283 285 285 287 288 289 290 290 291 293 294 296 298
245 246 244 244 249 253 255 256 255 256 258 262 265 263 266 268 268 268 270 271 271 273 274 273 275 275 278 279 279 281 284 285 285 285 285 287 288 289 291 292 294 295 297
247 250 251 253 253 254 258 261 261 260 261 264 265 264 267 268 268 269 269 270 271 272 273 274 274 275 276 278 281 284 284 285 285 285 286 287 288 289 290 292 294 295 295
249 249 250 254 255 254 257 262 264 264 263 265 268 269 269 269 270 269 269 271 273 274 275 274 275 275 276 278 281 283 285 285 285 285 286 287 287 288 290 292 293 294 295
252 254 251 254 256 257 259 263 264 263 263 264 267 269 270 270 271 272 273 273 274 276 278 278 277 277 278 279 281 283 285 285 285 286 286 287 288 289 291 292 293 293 295
254 257 257 257 259 261 262 264 265 265 265 265 266 268 269 271 273 274 274 275 276 277 278 279 278 278 279 280 281 283 284 284 285 286 287 288 289 290 290 291 293 294 294
259 261 262 262 262 264 264 263 263 264 264 265 267 268 269 271 273 273 273 275 276 277 278 279 280 281 282 283 284 284 284 285 285 287 288 289 290 290 291 292 293 294 294
260 262 264 265 265 264 264 264 264 264 266 267 268 271 272 271 272 273 274 276 277 279 280 282 283 283 282 282 284 285 285 285 286 287 288 290 290 290 291 292 293 293 294
262 264 267 269 267 265 265 267 267 266 268 269 270 271 272 274 274 274 275 276 278 279 280 282 283 284 285 285 285 285 286 287 287 288 289 290 290 291 292 292 292 293 294
264 266 268 269 267 266 266 267 268 269 271 272 273 273 274 274 275 275 277 278 279 280 281 282 283 284 285 286 286 286 286 287 287 288 289 289 290 291 291 291 292 292 293
267 268 268 268 268 267 268 269 270 271 273 274 274 275 276 276 277 278 280 280 281 281 282 283 284 285 285 286 286 286 286 286 287 288 289 289 290 290 291 291 292 292 293
270 271 270 269 269 270 272 272 273 275 276 276 277 278 279 279 280 280 280 281 281 282 283 284 285 285 286 286 286 287 287 287 288 289 289 289 290 290 291 291 292 292 293
269 271 272 272 272 272 273 274 275 276 277 277 278 279 279 279 280 281 281 282 283 283 283 284 285 285 286 286 287 287 288 288 289 289 289 290 290 290 291 292 292 293 293
Height
5872 5874 5876 5877 5878 5879 5880 5881 5882 5882 5883 5883 5883 5883 5882 5882 5881 5880 5878 5877 5876 5875 5873 5871 5870 5868 5866 5865 5864 5863 5862 5862 5861 5861 5861 5861 5861 5861 5861 5862 5862 5863 5864
5871 5873 5875 5876 5877 5879 5879 5880 5881 5881 5882 5882 5882 5882 5882 5881 5880 5879 5878 5877 5876 5875 5874 5872 5870 5868 5867 5866 5865 5864 5863 5863 5862 5862 5862 5861 5862 5862 5862 5862 5862 5863 5864
5870 5872 5873 5875 5876 5878 5878 5879 5880 5880 5881 5881 5881 5881 5881 5880 5880 5879 5878 5877 5876 5875 5874 5872 5871 5869 5868 5867 5866 5865 5864 5863 5863 5863 5863 5862 5862 5862 5862 5862 5863 5863 5864
5868 5870 5872 5874 5875 5876 5877 5878 5878 5879 5879 5880 5880 5880 5880 5879 5879 5878 5878 5877 5876 5875 5874 5872 5871 5870 5869 5868 5867 5866 5865 5865 5864 5863 5863 5863 5863 5863 5862 5863 5863 5863 5864
5867 5869 5871 5872 5873 5875 5875 5876 5877 5877 5878 5878 5879 5879 5879 5878 5878 5877 5877 5876 5875 5874 5873 5872 5871 5870 5870 5869 5868 5867 5866 5865 5865 5864 5864 5863 5863 5863 5863 5863 5863 5863 5863
5866 5867 5869 5870 5872 5873 5874 5874 5875 5876 5876 5877 5877 5877 5877 5877 5877 5876 5876 5875 5875 5874 5873 5872 5871 5870 5870 5869 5868 5867 5866 5866 5865 5864 5864 5864 5863 5863 5863 5863 5863 5863 5863
5864 5866 5867 5869 5870 5871 5872 5873 5873 5874 5874 5875 5875 5875 5875 5875 5875 5875 5874 5874 5873 5873 5872 5871 5870 5869 5869 5868 5868 5867 5867 5866 5865 5865 5864 5864 5863 5863 5863 5862 5862 5862 5862
5862 5864 5865 5867 5868 5869 5870 5871 5871 5872 5872 5873 5873 5873 5874 5874 5874 5873 5873 5872 5872 5871 5870 5869 5869 5868 5868 5867 5867 5867 5866 5866 5865 5864 5864 5863 5863 5862 5862 5862 5862 5861 5861
5860 5862 5864 5865 5866 5867 5868 5868 5869 5870 5870 5871 5871 5872 5872 5871 5871 5871 5871 5870 5870 5869 5868 5867 5866 5866 5866 5866 5866 5866 5865 5865 5864 5864 5863 5863 5862 5862 5861 5861 5861 5861 5860
5859 5860 5862 5863 5864 5865 5865 5866 5867 5867 5868 5868 5869 5869 5869 5869 5869 5869 5868 5868 5867 5866 5865 5864 5864 5864 5863 5863 5864 5864 5864 5864 5864 5863 5863 5862 5861 5861 5861 5860 5860 5859 5859
5857 5858 5859 5861 5861 5862 5863 5864 5865 5865 5866 5866 5867 5867 5867 5867 5866 5866 5865 5864 5864 5863 5862 5861 5861 5861 5861 5861 5861 5862 5863 5863 5862 5862 5862 5861 5860 5860 5859 5859 5858 5858 5857
5855 5856 5857 5858 5859 5860 5861 5862 5862 5863 5864 5864 5864 5864 5864 5864 5863 5862 5862 5861 5860 5860 5859 5858 5858 5858 5858 5858 5859 5860 5861 5861 5861 5860 5860 5859 5859 5858 5857 5857 5856 5855 5855
5853 5854 5855 5856 5857 5858 5859 5859 5860 5861 5861 5861 5861 5861 5861 5861 5860 5860 5859 5858 5857 5857 5857 5856 5856 5855 5856 5856 5857 5858 5858 5858 5858 5858 5858 5857 5856 5856 5855 5854 5854 5853 5852
5851 5852 5853 5854 5855 5855 5856 5857 5857 5858 5858 5859 5859 5858 5858 5858 5858 5857 5856 5856 5855 5855 5854 5854 5854 5854 5854 5854 5855 5855 5856 5855 5855 5855 5854 5854 5853 5853 5852 5851 5850 5849 5848
5849 5850 5851 5851 5852 5853 5853 5854 5854 5855 5855 5856 5856 5856 5856 5855 5855 5854 5854 5853 5853 5853 5852 5852 5852 5852 5852 5852 5852 5853 5852 5852 5852 5851 5851 5850 5849 5849 5848 5847 5846 5845 5843
5847 5847 5848 5848 5849 5850 5850 5851 5851 5852 5852 5852 5852 5852 5852 5852 5852 5851 5851 5851 5850 5850 5850 5849 5849 5849 5849 5849 5849 5849 5849 5848 5848 5847 5846 5846 5845 5844 5843 5842 5841 5839 5838
5844 5845 5845 5846 5846 5847 5847 5848 5848 5848 5849 5849 5849 5849 5849 5849 5849 5848 5848 5848 5847 5847 5847 5846 5846 5846 5846 5846 5846 5845 5845 5844 5844 5843 5842 5841 5840 5839 5838 5836 5835 5833 5831
5841 5842 5842 5842 5843 5843 5844 5844 5844 5845 5845 5845 5846 5846 5845 5845 5845 5845 5844 5844 5844 5844 5843 5843 5842 5842 5842 5842 5841 5841 5840 5840 5839 5838 5837 5836 5834 5833 5831 5830 5828 5826 5824
5838 5838 5838 5839 5839 5840 5840 5841 5841 5841 5841 5841 5841 5841 5841 5841 5841 5841 5840 5840 5840 5840 5839 5839 5838 5838 5837 5837 5836 5835 5835 5834 5833 5832 5830 5829 5828 5826 5824 5823 5821 5819 5816
5834 5834 5835 5835 5835 5836 5836 5836 5837 5837 5837 5837 5837 5837 5836 5837 5836 5836 5836 5836 5835 5835 5834 5834 5833 5833 5832 5831 5830 5829 5828 5828 5826 5825 5824 5822 5820 5818 5816 5814 5812 5810 5808
5830 5830 5831 5831 5831 5831 5832 5832 5832 5832 5832 5832 5832 5832 5832 5832 5832 5831 5831 5831 5830 5830 5829 5828 5828 5827 5826 5825 5824 5822 5821 5820 5819 5817 5816 5814 5812 5810 5807 5805 5803 5800 5798
5826 5826 5826 5826 5827 5827 5827 5827 5827 5827 5827 5827 5827 5827 5826 5826 5826 5826 5825 5825 5824 5824 5823 5822 5821 5820 5819 5818 5816 5815 5813 5812 5810 5809 5807 5805 5802 5800 5798 5795 5792 5790 5787
5821 5822 5822 5822 5822 5822 5822 5822 5822 5822 5822 5822 5821 5821 5821 5820 5820 5820 5819 5819 5818 5817 5816 5815 5814 5813 5811 5810 5808 5806 5804 5802 5800 5799 5797 5794 5792 5789 5787 5784 5781 5778 5775
5817 5817 5817 5817 5817 5817 5817 5817 5816 5816 5816 5816 5816 5815 5815 5814 5813 5813 5812 5811 5811 5810 5808 5807 5806 5804 5803 5801 5799 5797 5795 5793 5790 5788 5785 5783 5780 5777 5775 5772 5769 5765 5762
5811 5811 5811 5811 5811 5811 5811 5811 5810 5810 5810 5809 5809 5808 5808 5807 5806 5805 5805 5804 5803 5801 5800 5798 5797 5795 5794 5791 5789 5786 5784 5781 5779 5776 5774 5771 5768 5765 5762 5759 5756 5752 5749
5805 5805 5805 5805 5805 5805 5805 5804 5804 5803 5803 5803 5802 5801 5800 5799 5798 5797 5796 5795 5794 5792 5790 5788 5786 5784 5782 5780 5778 5775 5772 5769 5767 5764 5761 5758 5755 5752 5749 5745 5742 5738 5734